Location: Acheville
(50.3840°N, 2.8827°E)
Time: 11:39:46
(UTC+00:00)

X-37B - Pass Details

Date: 24 October 2021
Orbit: 330 x 341 km, 45.0° (Epoch: 20 November)

Event Time Altitude Azimuth Distance (km) Brightness Sun altitude
Rises 17:38:04 0° 263° (W) 2,127 6.7 -10.1°
Reaches altitude 10° 17:40:21 10° 246° (WSW) 1,286 4.6 -10.4°
Maximum altitude 17:42:37 21° 194° (SSW) 834 2.5 -10.8°
Drops below altitude 10° 17:44:53 10° 142° (SE) 1,282 2.9 -11.2°
Enters shadow 17:45:16 - 138° (SE) 1,408 3.1 -11.2°
